ISS DEB (SEDA-AP) (43870 NORAD) Tracking and Keplerian Element Data

This shows tracking and keplerian element data for the satellite.

Feedback or suggestion? Click here.




ElementValue
Catalog43870
NameISS DEB (SEDA-AP)
Epoch Orbit8725
Epoch Day186.16557546
Epoch Year2020
RAAN242.5268
Inclination51.6374
Eccentricity0.0004502
Argument of Perigee106.9023
Mean Anonmoly253.2463
Mean Motion15.57941469
Decay Rate1.542E-05
L11 43870U 98067PU 20186.16557546 .00001542 00000-0 26841-4 0 9995
L22 43870 51.6374 242.5268 0004502 106.9023 253.2463 15.57941469 87259

Live tracking and technical data element details for ISS DEB (SEDA-AP) (NORAD 43870). ISS DEB (SEDA-AP) can be tracked NOW for your location showing map with azimuth and elevation plus other details from your city location.

Track the satellite on the map from your city or location and see movement details for azimuth, elevation, latitude, longitude, range, height, and movement on the map or in text.







IsCatalogInMostPopularTable: catalog: 43870, numindb: 692
Update: records affected: 1



GetName: 43870 ISS DEB (SEDA-AP)

Hit Count: updated at: Sun, 05 Jul 2020 15:39:57 GMT